This is the latest recevied weather packets stored in our database for station/object OE-11073. If no packets are shown the sender has not sent any weather packets the latest 10 day(s).
| Time | Temp. | Humidity | Pressure | Rain* | Wind** | Luminosity | Snow |
|---|---|---|---|---|---|---|---|
| 1788095483 | 25° C | 51% | - | 0 mm | - | 673 W/m² | - |
| 1788095110 | 25° C | 56% | - | 0 mm | - | 643 W/m² | - |
| 1788094510 | 25° C | 54% | - | 0 mm | - | 612 W/m² | - |
| 1788093683 | 25° C | 54% | - | 0 mm | - | 650 W/m² | - |
| 1788093310 | 25° C | 50% | - | 0 mm | - | 757 W/m² | - |
| 1788092709 | 25° C | 52% | - | 0 mm | - | 788 W/m² | - |
| 1788091882 | 24.44° C | 51% | - | 0 mm | - | 689 W/m² | - |
| 1788091510 | 24.44° C | 54% | - | 0 mm | - | 497 W/m² | - |
| 1788090910 | 24.44° C | 52% | - | 0 mm | - | 788 W/m² | - |
| 1788090082 | 24.44° C | 52% | - | 0 mm | - | 788 W/m² | - |
| 1788089709 | 23.89° C | 49% | - | 0 mm | - | 780 W/m² | - |
| 1788089110 | 23.89° C | 55% | - | 0 mm | - | 780 W/m² | - |
| 1788088283 | 23.33° C | 53% | - | 0 mm | - | 773 W/m² | - |
| 1788087910 | 22.78° C | 53% | - | 0 mm | - | 773 W/m² | - |
| 1788087310 | 22.78° C | 57% | - | 0 mm | - | 765 W/m² | - |
| 1788086483 | 22.78° C | 59% | - | 0 mm | - | 765 W/m² | - |
| 1788086110 | 22.22° C | 56% | - | 0 mm | - | 750 W/m² | - |
| 1788085510 | 22.22° C | 59% | - | 0 mm | - | 742 W/m² | - |
| 1788084683 | 21.67° C | 61% | - | 0 mm | - | 734 W/m² | - |
| 1788084310 | 21.67° C | 61% | - | 0 mm | - | 719 W/m² | - |
| 1788083709 | 21.11° C | 58% | - | 0 mm | - | 704 W/m² | - |
| 1788082883 | 21.11° C | 62% | - | 0 mm | - | 689 W/m² | - |
| 1788082510 | 20.56° C | 66% | - | 0 mm | - | 673 W/m² | - |
| 1788081909 | 20° C | 63% | - | 0 mm | - | 658 W/m² | - |
| 1788081083 | 20° C | 65% | - | 0 mm | - | 635 W/m² | - |
* Rain latest hour (hover to see other rain measurements)
** Current wind speed in m/s (hover to see current wind gust speed)